Bedford, MA

10:42 PM EDT on March 24, 2017 (GMT -0400)
Hanscom

Weather History for KBED - April, 2013

Change the Weather History Date:

Sunday, April 14, 2013

  Actual Average Record
Temperature  
Mean Temperature 44 °F -  
Max Temperature 53 °F 57 °F 76 °F (1969)
Min Temperature 33 °F 32 °F 22 °F (1959)
Degree Days  
Heating Degree Days 22    
Moisture  
Dew Point 31 °F    
Average Humidity 63    
Maximum Humidity 100    
Minimum Humidity 36    
Precipitation  
Precipitation 0.00 in - - ()
Sea Level Pressure  
Sea Level Pressure 30.06 in    
Wind  
Wind Speed 6 mph (West)    
Max Wind Speed 17 mph    
Max Gust Speed 26 mph    
Visibility 10 miles    
Events      
Averages and records for this station are not official NWS values.
T = Trace of Precipitation, MM = Missing Value Source: NWS Daily Summary

Daily Weather History Graph

Daily Weather History Graph

Search for Another Location

Airport or City:

Trip Planner

Search our weather history database for the weather conditions in past years. The results will help you decide how hot, cold, wet, or windy it might be!

Date:

Astronomy

Apr. 14, 2013 Rise Set
Actual Time 6:05 AM EDT 7:26 PM EDT
Civil Twilight 5:36 AM EDT 7:55 PM EDT
Nautical Twilight 5:01 AM EDT 8:30 PM EDT
Astronomical Twilight 4:24 AM EDT 9:07 PM EDT
Moon 8:36 AM EDT (4/14) 11:40 PM EDT (4/14)
Length of Visible Light 14h 19m
Length of Day
13h 20m
Waxing Crescent, 17% of the Moon is Illuminated
Apr 14
Waxing Crescent
Apr 18
First Quarter
Apr 25
Full
May 2
Last Quarter
May 9
New

Hourly Weather History & Observations

Time (EDT) Temp. Windchill Dew Point Humidity Pressure Visibility Wind Dir Wind Speed Gust Speed Precip Events Conditions
12:56 AM 45.0 °F 43.5 °F 39.0 °F 80% 29.98 in 10.0 mi West 3.5 mph - 0.00 in   Overcast
1:56 AM 43.0 °F 41.3 °F 39.0 °F 86% 29.95 in 10.0 mi South 3.5 mph - N/A   Overcast
2:56 AM 35.1 °F 31.0 °F 35.1 °F 100% 29.97 in 10.0 mi WSW 4.6 mph - N/A   Mostly Cloudy
3:56 AM 37.9 °F - 37.0 °F 97% 29.97 in 10.0 mi Calm Calm - N/A   Overcast
4:56 AM 39.9 °F 36.7 °F 37.0 °F 89% 29.98 in 10.0 mi WSW 4.6 mph - N/A   Overcast
5:56 AM 39.9 °F 37.8 °F 37.0 °F 89% 29.98 in 10.0 mi WSW 3.5 mph - N/A   Overcast
6:56 AM 39.0 °F - 37.0 °F 93% 30.00 in 10.0 mi Calm Calm - N/A   Scattered Clouds
7:56 AM 45.0 °F 41.2 °F 37.0 °F 74% 30.01 in 10.0 mi West 6.9 mph - N/A   Partly Cloudy
8:56 AM 48.0 °F - 33.1 °F 56% 30.01 in 10.0 mi West 8.1 mph 21.9 mph N/A   Mostly Cloudy
9:56 AM 46.0 °F 41.0 °F 30.9 °F 56% 30.02 in 10.0 mi West 10.4 mph 21.9 mph N/A   Overcast
10:56 AM 46.0 °F 41.0 °F 30.9 °F 56% 30.04 in 10.0 mi WSW 10.4 mph - 0.00 in   Mostly Cloudy
11:56 AM 50.0 °F - 28.9 °F 44% 30.02 in 10.0 mi West 13.8 mph 24.2 mph N/A   Mostly Cloudy
12:56 PM 50.0 °F - 27.0 °F 41% 30.02 in 10.0 mi WNW 13.8 mph 25.3 mph N/A   Mostly Cloudy
1:56 PM 52.0 °F - 27.0 °F 38% 30.03 in 10.0 mi WNW 16.1 mph 20.7 mph N/A   Mostly Cloudy
2:56 PM 50.0 °F - 25.0 °F 38% 30.04 in 10.0 mi WNW 12.7 mph 21.9 mph N/A   Mostly Cloudy
3:56 PM 52.0 °F - 26.1 °F 37% 30.05 in 10.0 mi WNW 17.3 mph 26.5 mph N/A   Overcast
4:56 PM 51.1 °F - 25.0 °F 36% 30.07 in 10.0 mi West 13.8 mph 23.0 mph N/A   Mostly Cloudy
5:56 PM 48.9 °F - 26.1 °F 41% 30.10 in 10.0 mi NW 12.7 mph - N/A   Clear
6:56 PM 46.0 °F 40.2 °F 24.1 °F 42% 30.12 in 10.0 mi WNW 12.7 mph - N/A   Clear
7:56 PM 43.0 °F 39.5 °F 25.0 °F 49% 30.16 in 10.0 mi West 5.8 mph - N/A   Clear
8:56 PM 41.0 °F 38.0 °F 25.0 °F 53% 30.20 in 10.0 mi West 4.6 mph - N/A   Clear
9:56 PM 39.0 °F 36.8 °F 26.1 °F 60% 30.23 in 10.0 mi West 3.5 mph - N/A   Clear
10:56 PM 36.0 °F 32.1 °F 26.1 °F 67% 30.23 in 10.0 mi WNW 4.6 mph - N/A   Clear
11:56 PM 33.1 °F 30.0 °F 28.0 °F 82% 30.25 in 10.0 mi West 3.5 mph - N/A   Clear